Back to catalog

STARLINK-36691

AliveCommunicationsSSO
NORAD 67735·PAYLOAD·🇺🇸 United States

Launched Feb 11, 2026 from Vandenberg Space Force Base

Loading…

Next Passes (next 24 hours)

TLE

FreshSource: CelesTrak SupGP

Epoch: Sep 14, 2026, 14:52 UTC

1 67735C 26026Q   26257.61993056  .00045336  00000+0  14071-2 0  2577
2 67735  97.2852 309.5581 0000962 111.7997 150.0400 15.33422947    17

Track STARLINK-36691 in real time with AllMySat

Download on the App Store